Погода в Гизе

Египет     30°01′10″N   31°11′24″E
темп.,
°C
ветер,
м/с
пор.,
м/с
влажн.,
%
обл.,
%
осадки,
мм/ч
давл.,
гПа
погр.,
м
15 апреля, чт
чт1523:00+18св610480 0.0 1017340
02:00+17св59520 0.0 1016276
05:00+16св59600 0.0 1016249
08:00+20св68380 0.0 1017405
11:00+27св67160 0.0 1016860
14:00+31св671248 0.0 10141357
17:00+30св871445 0.0 10131353
20:00+24св71025100 0.0 1015370
16 апреля, пт
пт1623:00+21св583431 0.0 1015242
02:00+20св48385 0.0 1014205
05:00+20св38354 0.0 1013199
08:00+24св47200 0.0 1014328
11:00+31св67130 0.0 10141086
14:00+33св67110 0.0 10122340
17:00+32св109120 0.0 10121411
20:00+25всв812250 0.0 1014396
17 апреля, сб
сб1723:00+23св59300 0.0 1014285
02:00+22св410310 0.0 1013274
05:00+21св38280 0.0 1013188
08:00+26всв59180 0.0 1014396
11:00+32св67100 0.0 10141174
14:00+35св7780 0.0 10111666
17:00+34св87101 0.0 10111304
20:00+28св710203 0.0 1014388
18 апреля, вс
вс1823:00+24всв611305 0.0 1014284
02:00+25в39228 0.0 1012229
05:00+25св12185 0.0 101220
08:00+28с34153 0.0 1013220
11:00+37св1380 0.0 10121067
14:00+40ю3350 0.0 10101412
17:00+40юв12642 0.0 1008856
20:00+32всв58181 0.0 1010192
19 апреля, пн
пн1923:00+31ююв231590 0.0 101035
02:00+30ю4616100 0.0 100989
05:00+29ю5818100 0.0 1009157
08:00+32ю61016100 0.0 1010327
11:00+38ююз789100 0.0 10101207
14:00+40юз678100 0.0 10083175
17:00+33сз101122100 0.0 1008525
20:00+24ссз101246100 0.0 1012588